Regional Weather Roundup
Issued by NWS

Home | Current Version | Previous Version | Text Only | Print | Product List | Glossary Off
Versions: 1 2 3 4 5 6 7 8 9 10 11 12 13 14 15 16 17 18 19 20 21 22 23 24 25 26 27 28 29 30 31 32 33 34 35 36 37 38 39 40 41 42 43 44 45 46 47 48 49 50

000
ASUS43 KIND 282359
RWRIN

WEATHER ROUNDUP FOR INDIANA
NATIONAL WEATHER SERVICE INDIANAPOLIS IN
800 PM EDT SUN AUG 28 2016

NOTE: "FAIR" INDICATES FEW OR NO CLOUDS BELOW 12,000 FEET WITH NO
SIGNIFICANT WEATHER AND/OR OBSTRUCTIONS TO VISIBILITY.

* - STATION DOES NOT REPORT WEATHER SUCH AS PRECIPITATION OR FOG.

+ - STATION NOT QUALITY CONTROLLED BY THE NATIONAL WEATHER SERVICE.
    USE DATA WITH CAUTION...ESPECIALLY DEWPOINT AND RELATIVE
    HUMIDITY OBSERVATIONS.

INZ001>003-010>013-019-020-290100-
NORTHWEST INDIANA

CITY           SKY/WX    TMP DP  RH WIND       PRES   REMARKS
GARY /AIRPORT/ MOCLDY    75  73  94 NE8       30.17F
KNOX *+        CLOUDY    73  55  53 CALM      30.17S
MONTICELLO +   PTCLDY    75  64  69 E5        30.15S
6HR MIN TEMP:  74; 6HR MAX TEMP:  89;


$$

LMZ046-743>745-290100-
SOUTHERN LAKE MICHIGAN

STATION/POSITION TIME  TEMP    WIND        PRES    WAVE
                       AIR SEA DIR/SP/G            HT
                 (UTC) (F)     (DEG/KT/KT) (MB)    (FT)
BURNS HARBOR     2301   75      70/  8/ 11 1022.0R
MICHIGAN CITY    2300   74      30/ 11/ 12   N/A
5NW MICH CITY    2300   75 77   50/ 10/ 10   N/A     1

$$

INZ004-005-014>016-021>024-290100-
NORTH CENTRAL INDIANA

CITY           SKY/WX    TMP DP  RH WIND       PRES   REMARKS
GOSHEN         CLOUDY    74  70  87 CALM      30.17F
6HR MIN TEMP:  73; 6HR MAX TEMP:  86; 6HR PCP:  0.08;

SOUTH BEND     CLOUDY    76  72  87 N7        30.18S
6HR MIN TEMP:  76; 6HR MAX TEMP:  82;


$$

INZ006>009-017-018-025>027-290100-
NORTHEAST INDIANA

CITY           SKY/WX    TMP DP  RH WIND       PRES   REMARKS
ANGOLA *+      CLEAR     72  72 100 CALM      30.18S
FORT WAYNE     LGT RAIN  74  67  78 E3        30.17F
6HR MIN TEMP:  74; 6HR MAX TEMP:  90; 6HR PCP: TRACE;


$$

INZ028-029-035-036-043>045-051>053-290100-
WEST CENTRAL INDIANA

CITY           SKY/WX    TMP DP  RH WIND       PRES   REMARKS
CRAWFORDSVL +  PTCLDY    79  72  80 NE7       30.15S
6HR MIN TEMP:  79; 6HR MAX TEMP:  87;

LAFAYETTE      CLEAR     73  72  96 NE3       30.13F
6HR MIN TEMP:  73; 6HR MAX TEMP:  90; 6HR PCP:  0.97;

TERRE HAUTE    PTCLDY    83  75  77 N5        30.12S
6HR MIN TEMP:  83; 6HR MAX TEMP:  93;


$$

INZ030>032-037>040-046>048-054>057-064-065-290100-
CENTRAL INDIANA

CITY           SKY/WX    TMP DP  RH WIND       PRES   REMARKS
COLUMBUS       PTCLDY    84  79  84 CALM      30.14R HX  96
INDIANAPOLIS   MOCLDY    81  70  69 NE6       30.14S
6HR MIN TEMP:  81; 6HR MAX TEMP:  91; 6HR PCP: TRACE;

-EAGLE CREEK   PTCLDY    79  73  82 CALM      30.15R
6HR MIN TEMP:  77; 6HR MAX TEMP:  90; 6HR PCP:  0.19;

KOKOMO *+      PTCLDY    75  66  73 E6        30.16R
6HR MIN TEMP:  73; 6HR MAX TEMP:  90;

MT COMFORT *+  PTCLDY    77  73  88 NW3       30.16S
SHELBYVILLE    CLEAR     83  71  67 N5        30.14R
6HR MIN TEMP:  82; 6HR MAX TEMP:  92;


$$

INZ033-034-041-042-049-050-058-059-290100-
EAST CENTRAL INDIANA

CITY           SKY/WX    TMP DP  RH WIND       PRES   REMARKS
MUNCIE         CLOUDY    78  69  73 NW8       30.18R THUNDER
6HR MIN TEMP:  78; 6HR MAX TEMP:  90;


$$

INZ060-061-067>069-081>083-085>088-290100-
SOUTHWEST INDIANA

CITY           SKY/WX    TMP DP  RH WIND       PRES   REMARKS
EVANSVILLE     CLEAR     88  74  63 CALM      30.09S HX  96
6HR MIN TEMP:  88; 6HR MAX TEMP:  93;

HUNTINGBURG *+ CLEAR     84  75  74 E3        30.10S
6HR MIN TEMP:  84; 6HR MAX TEMP:  93;


$$

INZ062-063-066-070>080-084-089>092-290100-
SOUTH CENTRAL AND SOUTHEAST INDIANA

CITY           SKY/WX    TMP DP  RH WIND       PRES   REMARKS
BLOOMINGTON    PTCLDY    86  73  65 NE6       30.14R
6HR MIN TEMP:  86; 6HR MAX TEMP:  92;

MADISON *+     CLOUDY    73  68  83 NE5       30.19R

$$





USA.gov is the U.S. government's official web portal to all federal, state and local government web resources and services.